Ulemiste current weather conditions

sailwx.info

Wind from 330 at 8 knots

Air temperature 6.0° C
Visibility: greater than 5.4 NM
Dewpoint -1.0° C

Last reported at 2017-Apr-24 10:50 UTC.
Time now 2017-Apr-24 11:30 UTC

Location: N 59°25' E 024°50'.
View on Google Maps.

See reports from other nearby stations

  
Tides and Currents Weather Stations Pressure Air Temp Water Temp Dewpoint Dewpoint Depression Visibility Wind Speed Wind Dir Waves Ship Positions
date/time (UTC)wind fromknots sea level pressurealtimeterstation pressurevisibilityair tempwater tempwave heightnotes
2017-Apr-24 10:50 330 8 5.4 6.0
2017-Apr-24 10:20 320 5 5.4 5.0
2017-Apr-24 09:50 310 6 5.4 4.0 Showers in the vicinity.
2017-Apr-24 09:20 270 8 5.4 6.0 Light rain showers.
2017-Apr-24 08:50 290 7 5.4 6.0
2017-Apr-24 08:20 250 8 5.4 6.0
2017-Apr-24 07:50 240 9 5.4 6.0
2017-Apr-24 07:20 240 9 5.4 5.0
2017-Apr-24 06:50 250 7 5.4 4.0
2017-Apr-24 06:20 230 6 5.4 4.0
2017-Apr-24 05:50 220 6 5.4 3.0
2017-Apr-24 05:20 200 2 5.4 1.0
2017-Apr-24 04:50 200 2 5.4-0.0
2017-Apr-24 04:20 210 2 5.4-1.0
2017-Apr-24 03:50 5.4-2.0
2017-Apr-24 03:20 220 2 5.4-2.0
2017-Apr-24 02:50 210 2 5.4-2.0
2017-Apr-24 02:20 220 4 5.4-3.0
2017-Apr-24 01:50 210 2 5.4-2.0
2017-Apr-24 01:20 190 2 5.4-1.0
2017-Apr-24 00:50 230 2 5.4-2.0
2017-Apr-24 00:20 240 5 5.4-1.0
2017-Apr-23 23:50 250 5 5.4-1.0
2017-Apr-23 23:20 240 6 5.4-1.0
2017-Apr-23 22:50 240 4 5.4-1.0
2017-Apr-23 22:20 230 4 5.4-1.0
2017-Apr-23 21:50 200 4 5.4-0.0
2017-Apr-23 21:20 240 6 5.4-0.0
2017-Apr-23 20:50 250 6 5.4 1.0
2017-Apr-23 20:20 250 8 5.4 1.0
2017-Apr-23 19:50 260 9 5.4 1.0
2017-Apr-23 19:20 260 12 5.4 2.0
2017-Apr-23 18:50 260 12 5.4 2.0
2017-Apr-23 18:20 260 13 5.4 2.0
2017-Apr-23 17:50 270 15 5.4 3.0
2017-Apr-23 17:20 270 17 5.4 3.0
2017-Apr-23 16:50 280 13 5.4 4.0
2017-Apr-23 16:20 280 17 5.4 4.0
2017-Apr-23 15:50 280 15 5.4 4.0
2017-Apr-23 15:20 280 15 5.4 5.0
2017-Apr-23 14:50 280 18 5.4 5.0
2017-Apr-23 14:20 280 15 5.4 5.0
2017-Apr-23 13:50 290 17 5.4 6.0
2017-Apr-23 13:20 290 15 5.4 5.0
2017-Apr-23 12:50 290 15 5.4 5.0
2017-Apr-23 12:20 290 17 5.4 5.0
2017-Apr-23 11:50 290 18 5.4 5.0
2017-Apr-23 11:20 290 17 5.4 5.0
2017-Apr-23 10:50 290 12 5.4 5.0
2017-Apr-23 10:20 310 9 5.4 4.0
2017-Apr-23 09:50 320 9 5.4 4.0
2017-Apr-23 09:20 310 8 5.4 3.0
2017-Apr-23 08:50 310 9 5.4 3.0
2017-Apr-23 08:20 310 12 5.4 3.0
2017-Apr-23 07:50 320 8 5.4 3.0
2017-Apr-23 07:20 330 12 5.4 2.0
2017-Apr-23 06:50 330 11 5.4 2.0
2017-Apr-23 06:20 330 11 5.4 2.0
2017-Apr-23 05:50 310 13 3.8 2.0 Light drizzle snow.
2017-Apr-23 05:20 320 11 5.4 2.0
2017-Apr-23 04:50 310 12 5.4 2.0
2017-Apr-23 04:20 310 12 5.4 2.0
2017-Apr-23 03:50 310 12 5.4 2.0
2017-Apr-23 03:20 300 11 5.4 2.0
2017-Apr-23 02:50 310 9 5.4 2.0
2017-Apr-23 02:20 310 11 5.4 2.0 Light rain showers.
2017-Apr-23 01:50 290 8 5.4 1.0 Light snow.
2017-Apr-23 01:20 310 12 5.4 2.0 Light rain.
2017-Apr-23 00:50 310 12 5.4 2.0 Light rain showers.
2017-Apr-23 00:20 310 12 5.4 2.0 Light rain showers.
2017-Apr-22 23:50 310 12 5.4 3.0
2017-Apr-22 23:20 310 11 5.4 3.0
2017-Apr-22 22:50 320 9 5.4 3.0
2017-Apr-22 22:20 320 11 5.4 3.0
2017-Apr-22 21:50 320 11 5.4 3.0
2017-Apr-22 21:20 310 11 5.4 3.0
2017-Apr-22 20:50 310 8 5.4 3.0
2017-Apr-22 20:20 320 9 5.4 3.0
2017-Apr-22 19:50 310 7 5.4 3.0
2017-Apr-22 19:20 300 8 5.4 3.0
2017-Apr-22 18:50 310 7 5.4 3.0
2017-Apr-22 18:20 320 11 5.4 3.0 Showers in the vicinity.
2017-Apr-22 17:50 330 6 5.4 3.0 Light rain showers.
2017-Apr-22 17:20 310 9 5.4 3.0
2017-Apr-22 16:50 310 13 5.4 3.0
2017-Apr-22 16:20 310 9 5.4 4.0
2017-Apr-22 15:50 320 12 5.4 4.0
2017-Apr-22 15:20 310 12 5.4 5.0
2017-Apr-22 14:50 310 11 5.4 5.0
2017-Apr-22 14:20 280 13 5.4 5.0
2017-Apr-22 13:50 280 13 5.4 5.0
2017-Apr-22 13:20 290 13 5.4 5.0
2017-Apr-22 12:50 290 13 5.4 4.0
2017-Apr-22 12:20 290 13 5.4 4.0
2017-Apr-22 11:50 280 14 5.4 4.0
2017-Apr-22 11:20 290 15 5.4 3.0 Showers in the vicinity.